Weather History for KBKD - March, 2014

Change the Weather History Date:

Wednesday, March 26, 2014

  Actual Average (KABI) Record (KABI)
Temperature  
Mean Temperature 56 °F 59 °F  
Max Temperature 64 °F 72 °F 92 °F (1890)
Min Temperature 49 °F 47 °F 19 °F (1955)
Degree Days  
Heating Degree Days 8 7  
Month to date heating degree days 264  
Since 1 July heating degree days 2397  
Cooling Degree Days 0 1  
Month to date cooling degree days 21  
Year to date cooling degree days 26  
Growing Degree Days 6 (Base 50)    
Moisture  
Dew Point 40 °F    
Average Humidity 55    
Maximum Humidity 78    
Minimum Humidity 32    
Precipitation  
Precipitation 0.07 in 0.05 in 2.30 in (1938)
Month to date precipitation 1.47  
Year to date precipitation 3.85  
Sea Level Pressure  
Sea Level Pressure 29.98 in    
Wind  
Wind Speed 16 mph (SSE)    
Max Wind Speed 30 mph    
Max Gust Speed 43 mph    
Visibility 10 miles    
Events Rain    
T = Trace of Precipitation, MM = Missing Value Source: NWS Daily Summary

Daily Weather History Graph

Daily Weather History Graph

Search for Another Location

Airport or City:

Trip Planner

Search our weather history database for the weather conditions in past years. The results will help you decide how hot, cold, wet, or windy it might be!

Date:

Astronomy

Mar. 26, 2014 Rise Set
Actual Time 7:31 AM CDT 7:51 PM CDT
Civil Twilight 7:06 AM CDT 8:16 PM CDT
Nautical Twilight 6:37 AM CDT 8:45 PM CDT
Astronomical Twilight 6:08 AM CDT 9:14 PM CDT
Moon 4:27 AM CDT (3/26) 3:44 PM CDT (3/26)
Length of Visible Light 13h 09m
Length of Day
12h 20m
Waning Crescent, 21% of the Moon is Illuminated
Mar 26
Waning Crescent
Mar 30
New
Apr 7
First Quarter
Apr 15
Full
Apr 22
Last Quarter

Hourly Weather History & Observations

Time (CDT) Temp. Dew Point Humidity Pressure Visibility Wind Dir Wind Speed Gust Speed Precip Events Conditions
12:15 AM 52.2 °F 22.8 °F 32% 30.17 in 10.0 mi SSE 11.5 mph - N/A   Clear
12:35 AM 51.6 °F 23.0 °F 33% 30.16 in 10.0 mi SSE 10.4 mph - N/A   Clear
12:55 AM 50.7 °F 23.2 °F 34% 30.16 in 10.0 mi SSE 9.2 mph - N/A   Clear
1:15 AM 50.9 °F 23.5 °F 34% 30.15 in 10.0 mi SE 10.4 mph 16.1 mph N/A   Clear
1:35 AM 50.5 °F 23.7 °F 35% 30.14 in 10.0 mi SE 10.4 mph - N/A   Clear
1:55 AM 50.7 °F 23.9 °F 35% 30.13 in 10.0 mi SE 13.8 mph - N/A   Clear
2:15 AM 50.5 °F 24.1 °F 36% 30.13 in 10.0 mi SE 15.0 mph - N/A   Clear
2:35 AM 50.9 °F 23.9 °F 35% 30.11 in 10.0 mi SE 15.0 mph 19.6 mph N/A   Clear
2:55 AM 50.9 °F 23.9 °F 35% 30.11 in 10.0 mi SE 12.7 mph 18.4 mph N/A   Clear
3:15 AM 51.1 °F 23.9 °F 35% 30.10 in 10.0 mi SE 16.1 mph 21.9 mph N/A   Clear
3:35 AM 51.1 °F 23.9 °F 35% 30.10 in 10.0 mi SE 12.7 mph 20.7 mph N/A   Scattered Clouds
3:55 AM 51.1 °F 23.9 °F 35% 30.10 in 10.0 mi SE 10.4 mph 16.1 mph N/A   Scattered Clouds
4:15 AM 50.9 °F 23.7 °F 35% 30.08 in 10.0 mi SE 9.2 mph - N/A   Scattered Clouds
4:35 AM 51.1 °F 23.7 °F 34% 30.08 in 10.0 mi SE 8.1 mph - N/A   Clear
4:55 AM 51.1 °F 23.5 °F 34% 30.07 in 10.0 mi SE 9.2 mph - N/A   Clear
5:15 AM 51.8 °F 23.5 °F 33% 30.08 in 10.0 mi SE 9.2 mph - N/A   Clear
5:35 AM 52.2 °F 23.5 °F 33% 30.08 in 10.0 mi SE 9.2 mph - N/A   Scattered Clouds
5:55 AM 52.7 °F 23.7 °F 32% 30.06 in 10.0 mi SE 16.1 mph - N/A   Mostly Cloudy
6:15 AM 52.7 °F 26.1 °F 36% 30.06 in 10.0 mi SSE 17.3 mph - N/A Rain Light Rain
6:35 AM 53.2 °F 25.7 °F 34% 30.05 in 10.0 mi SE 16.1 mph 21.9 mph N/A   Overcast
6:55 AM 53.6 °F 25.7 °F 34% 30.06 in 10.0 mi SSE 13.8 mph 18.4 mph N/A   Overcast
7:15 AM 54.0 °F 26.8 °F 35% 30.06 in 10.0 mi SSE 18.4 mph - N/A   Overcast
7:35 AM 53.2 °F 31.6 °F 44% 30.07 in 10.0 mi SSE 13.8 mph 20.7 mph N/A Rain Rain
7:55 AM 50.4 °F 37.2 °F 61% 30.08 in 10.0 mi SSE 11.5 mph - 0.01 in Rain Light Rain
8:15 AM 50.4 °F 38.7 °F 64% 30.08 in 10.0 mi SSE 6.9 mph - N/A   Overcast
8:35 AM 50.9 °F 39.2 °F 64% 30.07 in 10.0 mi SE 13.8 mph - N/A Rain Light Rain
8:55 AM 49.1 °F 41.4 °F 75% 30.01 in 5.0 mi SE 20.7 mph 34.5 mph 0.05 in Rain Rain
9:15 AM 49.5 °F 42.8 °F 78% 30.05 in 10.0 mi SE 11.5 mph 19.6 mph 0.01 in   Overcast
9:35 AM 50.5 °F 43.7 °F 77% 30.06 in 10.0 mi SSE 11.5 mph - 0.01 in   Overcast
9:55 AM 51.3 °F 43.7 °F 75% 30.06 in 10.0 mi SSE 12.7 mph 18.4 mph 0.01 in   Overcast
10:15 AM 52.0 °F 43.7 °F 73% 30.05 in 10.0 mi North - - N/A   Overcast
10:35 AM 53.1 °F 43.3 °F 70% 30.04 in 10.0 mi SE 16.1 mph 24.2 mph N/A   Overcast
10:55 AM 53.6 °F 43.7 °F 69% 30.04 in 10.0 mi SSE 15.0 mph 20.7 mph N/A   Overcast
11:15 AM 54.3 °F 43.2 °F 66% 30.03 in 10.0 mi SSE 12.7 mph 20.7 mph N/A   Overcast
11:35 AM 55.2 °F 42.8 °F 63% 30.03 in 10.0 mi South 13.8 mph 20.7 mph N/A   Overcast
11:55 AM 55.8 °F 43.2 °F 63% 30.03 in 10.0 mi South 12.7 mph 24.2 mph N/A   Overcast
12:15 PM 56.3 °F 43.7 °F 63% 30.03 in 10.0 mi South 12.7 mph 21.9 mph N/A   Overcast
12:35 PM 56.5 °F 43.7 °F 62% 30.01 in 10.0 mi South 12.7 mph 18.4 mph N/A   Overcast
12:55 PM 57.6 °F 44.2 °F 61% 29.99 in 10.0 mi SSE 13.8 mph - N/A   Overcast
1:15 PM 59.2 °F 44.1 °F 57% 29.98 in 10.0 mi South 16.1 mph 21.9 mph N/A   Overcast
1:35 PM 60.8 °F 44.8 °F 56% 29.96 in 10.0 mi South 20.7 mph 27.6 mph N/A   Overcast
1:55 PM 61.9 °F 45.3 °F 55% 29.95 in 10.0 mi South 27.6 mph 36.8 mph N/A   Overcast
2:15 PM 62.6 °F 45.5 °F 54% 29.93 in 10.0 mi South 28.8 mph 35.7 mph N/A   Overcast
2:35 PM 64.0 °F 46.4 °F 53% 29.91 in 10.0 mi South 25.3 mph 39.1 mph N/A   Overcast
2:55 PM 63.7 °F 46.4 °F 53% 29.91 in 10.0 mi SSW 24.2 mph 36.8 mph N/A   Overcast
3:15 PM 63.3 °F 46.2 °F 54% 29.90 in 10.0 mi South 26.5 mph 34.5 mph N/A   Overcast
3:35 PM 63.5 °F 46.2 °F 53% 29.89 in 10.0 mi South 29.9 mph 36.8 mph N/A   Overcast
3:55 PM 63.7 °F 46.8 °F 54% 29.89 in 10.0 mi South 26.5 mph 34.5 mph N/A   Overcast
4:15 PM 63.0 °F 47.1 °F 56% 29.88 in 10.0 mi South 25.3 mph 32.2 mph N/A   Overcast
4:35 PM 62.8 °F 47.5 °F 57% 29.87 in 10.0 mi South 21.9 mph 32.2 mph N/A   Overcast
4:55 PM 63.0 °F 47.8 °F 58% 29.86 in 10.0 mi South 23.0 mph 33.4 mph N/A   Overcast
5:15 PM 63.1 °F 47.7 °F 57% 29.85 in 10.0 mi South 25.3 mph 33.4 mph N/A   Overcast
5:35 PM 63.7 °F 48.2 °F 57% 29.85 in 10.0 mi South 20.7 mph 31.1 mph N/A   Overcast
5:55 PM 63.5 °F 49.5 °F 60% 29.84 in 10.0 mi South 27.6 mph 35.7 mph N/A   Overcast
6:15 PM 62.6 °F 50.2 °F 64% 29.84 in 10.0 mi South 25.3 mph 31.1 mph N/A   Overcast
6:35 PM 61.9 °F 50.7 °F 67% 29.84 in 10.0 mi South 21.9 mph 36.8 mph N/A   Overcast
6:55 PM 61.7 °F 50.5 °F 67% 29.84 in 10.0 mi South 24.2 mph 32.2 mph N/A   Overcast
7:15 PM 61.7 °F 50.4 °F 66% 29.84 in 10.0 mi South 27.6 mph 34.5 mph N/A   Overcast
7:35 PM 61.7 °F 50.4 °F 66% 29.84 in 10.0 mi South 28.8 mph 33.4 mph N/A   Overcast
7:55 PM 61.3 °F 50.4 °F 67% 29.83 in 10.0 mi South 24.2 mph 32.2 mph N/A   Overcast
8:15 PM 61.0 °F 50.2 °F 68% 29.82 in 10.0 mi South 23.0 mph 33.4 mph N/A   Overcast
8:35 PM 60.3 °F 50.0 °F 69% 29.81 in 10.0 mi South 24.2 mph 35.7 mph N/A   Mostly Cloudy
8:55 PM 60.3 °F 50.0 °F 69% 29.81 in 10.0 mi South 21.9 mph 32.2 mph N/A   Clear
9:15 PM 60.8 °F 50.5 °F 69% 29.81 in 10.0 mi South 26.5 mph 38.0 mph N/A   Scattered Clouds
9:35 PM 61.2 °F 51.1 °F 69% 29.81 in 10.0 mi South 20.7 mph 34.5 mph N/A   Mostly Cloudy
9:55 PM 61.3 °F 51.8 °F 71% 29.82 in 10.0 mi South 27.6 mph 38.0 mph N/A   Overcast
10:15 PM 61.3 °F 52.3 °F 72% 29.82 in 10.0 mi South 28.8 mph 41.4 mph N/A   Overcast
10:35 PM 61.3 °F 52.7 °F 73% 29.82 in 10.0 mi South 29.9 mph 42.6 mph N/A   Overcast
10:55 PM 61.3 °F 52.9 °F 74% 29.82 in 10.0 mi South 26.5 mph 35.7 mph N/A   Overcast
11:15 PM 61.3 °F 53.2 °F 75% 29.81 in 10.0 mi South 25.3 mph 36.8 mph N/A   Overcast
11:35 PM 61.0 °F 53.4 °F 76% 29.81 in 10.0 mi South 23.0 mph 35.7 mph N/A   Overcast
11:55 PM 61.5 °F 53.6 °F 75% 29.81 in 10.0 mi South 17.3 mph 32.2 mph N/A   Overcast